Погода в Бектауате

Погода в Бектауате : погода сейчас, прогноз погоды и архив. Всё, что Вы хотите узнать о погоде в Бектауате!

Поиск расширенной информации на нашем сайте:

Другие новости

Новости СМИ2

Главная страница сайта

Новости сайта

02.10.2013

Напоминаем, что на нашем новом сайте вы можете получить высокодетализированные прогнозы погоды по пунктам России, СНГ и мира (включающие важные для авиации метеовеличины, такие как направление и скорость ветра, видимость, явления погоды, количество и форма облачности, нижняя и верхняя граница облачности), а также ознакомиться с разнообразными материалами по авиационной метеорологии и подборкой полезных ссылок на эту тему.

Сайт Метеоцентр.Азия посвящён разработке технологий оптимизации авиаметеорологического обслуживания, включая проектирование и перспективное создание нескольких автоматизированных авиаметеорологических систем:
- система выпуска высокодетальных прогностических карт явлений погоды для нижнего воздушного пространства по России и ближнему зарубежью;
- система верификации прогнозов TAF (выпускаемых синоптиками официальных АМСГ РФ и ближнего зарубежья) и AUTOTAF (выпускаемых сайтом Метеоцентр.Азия) - выявление ошибок, онлайн-сопоставление с фактической погодой METAR, автоматическое внесение коррективов в прогнозы при резком отклонении фактической погоды от прогноза, подсчёт оправдываемости прогнозов по элементам и в целом;
- система обработки, анализа и отображения авиаметеорологической информации для применения провайдерами метеорологической информации.


Погода в Бектауате - сегодня

Время (UTC), дата Ветер
(°,м/с) 
Видим.   Явления Облачность Т
(°С)
Тd
(°С)
f(%) Тe
(°С)
Pmin
(гПа)
dP
(гПа)
Po
(мм)
O2
(г/м3)
Тmin Tmax R s Состояние
почвы
12 21.06.17 030 (СВ) 20000 м    4/3 1000 м верхняя 
[Cu med, cong|Ci]
+32 +7.7 22 +32  998.7  -0.2  699  251           
15 21.06.17 030 (СВ) 20000 м    4/0 средняя 
[Ac lent]
+28.8 +8.6 28 +29  999.8  0.4  700  253    +33.7       
18 21.06.17 тихо ()   н/о    ясно 
+23.7 +9 39 +25  1001.6  0.6  700  258    +33.7       
21 21.06.17 080 (В) н/о    ясно 
+24.3 +10.2 41 +27  1001.6  0.1  700  257           
00 22.06.17 080 (В) 20000 м    5/0 верхняя 
[Ci fib]
+22.2 +9.9 46 +25  1002.4  0.2  700  259           
03 22.06.17 060 (СВ) 20000 м    5/0 верхняя 
[Ci]
+25.5 +9.5 36 +26  1002.6  751  275           
06 22.06.17 050 (СВ) 20000 м    3/0 верхняя 
[Ci ing]
+29.8 +9.8 29 +30  1001.7             
09 22.06.17 050 (СВ) 20000 м    3/0 
+32 +9.8 25 +34  999.9  -1.2  700  251           
12 22.06.17 050 (СВ) 20000 м    8/0 верхняя 
[Ci]
+32.2 +11.7 29 +37  999.2  -0.5  700  250           
15 22.06.17 060 (СВ) 20000 м    9/0 средняя, верхняя 
[Ac lent|Ci]
+29.2 +9.7 30 +29  1000.9  0.9             
18 22.06.17 080 (В) н/о    3/0 верхняя 
[Ci]
+25.7 +9.3 35 +27  1002.4  0.6  701  256    +33.4       
21 22.06.17 070 (В) н/о    3/0 верхняя 
[Ci ing]
+24.2 +10.7 43 +28  1001.3  -1.3  700  257           
00 23.06.17 060 (СВ) 20000 м    9/4 600 м кучево-дожд., средняя 
[Cb cap|Ac lent]
+21.9 +11.8 53 +22    60.5             
03 23.06.17 070 (В) 20000 м    9/5 600 м кучево-дожд., средняя, верхняя 
[Cb cap|Ac cast|Ci fib]
+22.3 +11.9 52 +26  1003.1  1.8  752  278           
06 23.06.17 090 (В) 20000 м    8/3 1000 м кучево-дожд., средняя, верхняя 
[Cb calv|Ac lent|Ci fib]
+27.2 +12.2 39 +33  999.5  -2.3  699  254  +21.6         
09 23.06.17 190 (Ю) 20000 м    6/4 1000 м верхняя 
[Cu hum|Ci fib]
+32.6 +10.3 25 +36  996.9  -1.3  698  249           
12 23.06.17 230 (ЮЗ) 20000 м    5/3 1000 м верхняя 
[Cu med, cong|Ci]
+32.2 +11.4 28 +37  994.6  -2.2  697  249           
15 23.06.17 тихо ()   20000 м  гроза без осадков  8/6 600 м кучево-дожд., верхняя 
[Cb cap|Ci]
+26.5 +15 49 +37  995.2  -0.6  696  252    +33.7       
18 23.06.17 030 (СВ) н/о  {гроза, ливн. осадки}  3/3 600 м кучево-дожд. 
[Cb cap]
+24.9 +10.2 40 +28  996.4  0.7  697  255        698  мокрый или
старый снег
10-40% 
21 23.06.17 080 (В) н/о  зарница  4/3 600 м кучево-дожд., верхняя 
[Cb cap|Ci fib]
+20.4 +12.8 62 +27  998.2  0.7  697  259           
00 24.06.17 050 (СВ) 20000 м    8/3 600 м кучево-дожд., средняя 
[Cb cap|Ac cast]
+20 +14.1 69 +29  998.8  0.6  698  259           
06 24.06.17 320 (СЗ) 20000 м    8/0 средняя, верхняя 
[Ac cast|Ci]
+25.3 +13.1 47 +25  1000.4  1.2        0.0     
09 24.06.17 270 (З) 20000 м  гроза без осадков  8/8 600 м 
+29.4 +13.3 37 +35  998.6  -0.8  744  268           
12 24.06.17 020 (С) 10 км  гроза, ливневой дождь  9/9 600 м кучево-дожд. 
[Cb cap]
+19.2 +16.2 83 +33  1002.8  1.7  700  260           
15 24.06.17 тихо ()   20000 м  гроза без осадков{ливн. осадки}  9/5 600 м кучево-дожд., средняя, верхняя 
[Cb cap|Ac lent|Ci]
+21.4 +18.5 84 +39  1003  0.8  701  257    +30.5       
Время (UTC), дата Ветер
(°,м/с) 
Видим.   Явления Облачность Т
(°С)
Тd
(°С)
f(%) Тe
(°С)
Pmin
(гПа)
dP
(гПа)
Po
(мм)
O2
(г/м3)
Тmin Tmax R s Состояние
почвы

Для получения пояснительной информации подведите курсор к названию столбца.

ПОГОДА в Бектауате - архив

Всё, что Вы хотите узнать о погоде в Бектауате - удобно и подробно!

Выберите нужную дату (начиная с 1 января 2015* года) и нажмите кнопку "Найти".
Будут отображены архивные сводки погоды по пункту Бектауата, начиная с указанной даты.


Отображать данные в формате CSV (для использования в таблицах Excel)


Внимание! Наш архив погоды предназначен исключительно для личного некоммерческого использования в познавательных целях. Если Вам необходимы официальные справки о состоянии погоды (для производственных, юридических, коммерческих и т.п. целей), обращайтесь в органы Росгидромета.

*Примечание: данная дата относится к архиву по метеостанциям СССР (Россия, СНГ, Балтия).
Архив по метеостанциям Зарубежной Европы и Азии (кроме Китая) хранится 10 дней, по другим регионам земного шара (Китай, Африка, Америка, Австралия, Океания) - 1 день.

Бектауата - район местоположения метеостанции


Название, широта, долгота, высота метеостанции:
Бектауата 47.4°ш. 74.8°д. 520 м над ур. моря [Казахстан]

Дополнительная информация

В oтличие oт бoльшинства пoгoдных сайтoв мы публикуем пoдрoбную метеoинфoрмацию в детальнoм прoфессиoнальнoм фoрмате.

Характеристики температуры и влажнoсти вoздуха измеряются на высoте 2 м в тени вдали oт зданий и деревьев.
Скoрoсть ветра измеряется на высoте 10 м (на урoвне рoста челoвека скoрoсть ветра ниже в 1.5-2 раза). Если метеoстанция нахoдится в гoрoде или в лесу, тo скoрoсть ветра занижена на 2-4 м/с пo сравнению с oткрытым местoм. Скoрoсть ветра над акватoриями крупных рек и oзёр, а также на вершинах хoлмoв на 2-5 м/с выше, чем в oбычных услoвиях.
Атмoсфернoе давление в разных тoчках местнoсти мoжет значительнo oтличаться oт давления на метеoстанции, в зависимoсти oт услoвий рельефа (при пoдъёме на 10 м давление пoнижается примернo на 1 мм рт.ст.).